TimeCST,TemperatureF,Dew PointF,Humidity,Sea Level PressureIn,VisibilityMPH,Wind Direction,Wind SpeedMPH,Gust SpeedMPH,PrecipitationIn,Events,Conditions,WindDirDegrees,DateUTC
12:15 AM,42.8,30.2,61,29.90,10.0,SE,8.1,-,N/A,,Clear,140,2012-11-08 06:15:00
12:35 AM,41.0,30.2,65,29.90,10.0,SE,9.2,-,N/A,,Clear,130,2012-11-08 06:35:00
1:15 AM,41.0,30.2,65,29.89,10.0,SE,9.2,-,N/A,,Clear,130,2012-11-08 07:15:00
1:55 AM,41.0,30.2,65,29.87,10.0,ESE,10.4,-,N/A,,Clear,120,2012-11-08 07:55:00
2:15 AM,41.0,30.2,65,29.87,10.0,ESE,9.2,-,N/A,,Clear,120,2012-11-08 08:15:00
2:35 AM,41.0,30.2,65,29.86,10.0,ESE,9.2,-,N/A,,Clear,120,2012-11-08 08:35:00
2:55 AM,39.2,30.2,70,29.85,10.0,East,9.2,-,N/A,,Clear,100,2012-11-08 08:55:00
3:15 AM,39.2,30.2,70,29.85,10.0,East,9.2,-,N/A,,Clear,100,2012-11-08 09:15:00
3:35 AM,39.2,30.2,70,29.84,10.0,ESE,10.4,-,N/A,,Clear,110,2012-11-08 09:35:00
3:55 AM,39.2,28.4,65,29.83,10.0,ESE,8.1,-,N/A,,Clear,110,2012-11-08 09:55:00
5:15 AM,37.4,30.2,75,29.83,10.0,SE,12.7,-,N/A,,Clear,130,2012-11-08 11:15:00
5:35 AM,35.6,28.4,75,29.83,10.0,East,6.9,-,N/A,,Clear,100,2012-11-08 11:35:00
5:55 AM,37.4,30.2,75,29.82,10.0,South,13.8,-,N/A,,Clear,170,2012-11-08 11:55:00
6:15 AM,35.6,26.6,70,29.82,10.0,East,10.4,-,N/A,,Clear,100,2012-11-08 12:15:00
6:55 AM,35.6,28.4,75,29.83,10.0,SE,6.9,-,N/A,,Clear,130,2012-11-08 12:55:00
7:15 AM,35.6,28.4,75,29.84,10.0,ESE,4.6,-,N/A,,Clear,120,2012-11-08 13:15:00
7:35 AM,37.4,28.4,70,29.84,10.0,SSE,8.1,-,N/A,,Clear,160,2012-11-08 13:35:00
7:55 AM,39.2,30.2,70,29.85,10.0,South,6.9,-,N/A,,Clear,170,2012-11-08 13:55:00
8:15 AM,42.8,30.2,61,29.85,10.0,South,6.9,-,N/A,,Clear,170,2012-11-08 14:15:00
8:35 AM,44.6,30.2,57,29.86,10.0,South,8.1,-,N/A,,Clear,180,2012-11-08 14:35:00
8:55 AM,46.4,30.2,53,29.86,10.0,South,8.1,-,N/A,,Clear,180,2012-11-08 14:55:00
9:15 AM,46.4,30.2,53,29.86,10.0,South,6.9,-,N/A,,Clear,180,2012-11-08 15:15:00
9:35 AM,48.2,30.2,50,29.86,10.0,SSW,9.2,-,N/A,,Clear,200,2012-11-08 15:35:00
9:55 AM,50.0,32.0,50,29.86,10.0,SSW,6.9,-,N/A,,Clear,210,2012-11-08 15:55:00
10:15 AM,51.8,30.2,44,29.87,10.0,WSW,8.1,-,N/A,,Clear,240,2012-11-08 16:15:00
10:35 AM,51.8,32.0,47,29.87,10.0,West,5.8,-,N/A,,Clear,270,2012-11-08 16:35:00
10:55 AM,53.6,32.0,44,29.87,10.0,WNW,9.2,-,N/A,,Clear,290,2012-11-08 16:55:00
11:15 AM,53.6,32.0,44,29.88,10.0,West,9.2,-,N/A,,Clear,280,2012-11-08 17:15:00
11:35 AM,53.6,32.0,44,29.88,10.0,WNW,5.8,-,N/A,,Clear,300,2012-11-08 17:35:00
11:55 AM,55.4,32.0,41,29.87,10.0,NNW,9.2,-,N/A,,Clear,330,2012-11-08 17:55:00
12:15 PM,55.4,32.0,41,29.87,10.0,North,8.1,-,N/A,,Clear,360,2012-11-08 18:15:00
12:35 PM,55.4,32.0,41,29.87,10.0,North,9.2,-,N/A,,Clear,10,2012-11-08 18:35:00
12:55 PM,57.2,33.8,41,29.87,10.0,NNE,10.4,-,N/A,,Clear,20,2012-11-08 18:55:00
1:15 PM,57.2,32.0,38,29.87,10.0,North,11.5,-,N/A,,Clear,360,2012-11-08 19:15:00
1:35 PM,57.2,32.0,38,29.87,10.0,NNW,11.5,-,N/A,,Clear,340,2012-11-08 19:35:00
1:55 PM,57.2,32.0,38,29.87,10.0,North,11.5,-,N/A,,Clear,360,2012-11-08 19:55:00
2:15 PM,59.0,32.0,36,29.87,10.0,North,11.5,17.3,N/A,,Clear,360,2012-11-08 20:15:00
2:35 PM,59.0,32.0,36,29.87,10.0,NNE,11.5,-,N/A,,Clear,20,2012-11-08 20:35:00
2:55 PM,57.2,33.8,41,29.88,10.0,NNE,12.7,18.4,N/A,,Clear,30,2012-11-08 20:55:00
3:15 PM,57.2,33.8,41,29.88,10.0,NNE,12.7,-,N/A,,Clear,30,2012-11-08 21:15:00
3:35 PM,57.2,33.8,41,29.88,10.0,North,10.4,-,N/A,,Clear,10,2012-11-08 21:35:00
3:55 PM,57.2,32.0,38,29.89,10.0,North,9.2,-,N/A,,Clear,10,2012-11-08 21:55:00
4:15 PM,57.2,32.0,38,29.90,10.0,NNE,10.4,-,N/A,,Clear,30,2012-11-08 22:15:00
4:35 PM,55.4,32.0,41,29.90,10.0,NNE,9.2,-,N/A,,Clear,30,2012-11-08 22:35:00
4:55 PM,53.6,32.0,44,29.91,10.0,NNE,8.1,-,N/A,,Clear,30,2012-11-08 22:55:00
5:15 PM,51.8,32.0,47,29.91,10.0,NNE,8.1,-,N/A,,Clear,30,2012-11-08 23:15:00
5:35 PM,51.8,32.0,47,29.91,10.0,NNE,6.9,-,N/A,,Clear,30,2012-11-08 23:35:00
5:55 PM,50.0,32.0,50,29.91,10.0,NNE,6.9,-,N/A,,Clear,20,2012-11-08 23:55:00
6:15 PM,50.0,32.0,50,29.92,10.0,North,5.8,-,N/A,,Clear,10,2012-11-09 00:15:00
6:35 PM,48.2,30.2,50,29.92,10.0,North,6.9,-,N/A,,Clear,10,2012-11-09 00:35:00
6:55 PM,44.6,30.2,57,29.92,10.0,North,6.9,-,N/A,,Clear,360,2012-11-09 00:55:00
7:15 PM,44.6,33.8,66,29.91,10.0,North,8.1,-,N/A,,Clear,360,2012-11-09 01:15:00
7:35 PM,44.6,30.2,57,29.92,10.0,NNW,11.5,-,N/A,,Clear,340,2012-11-09 01:35:00
7:55 PM,44.6,35.6,71,29.93,10.0,NNE,12.7,-,N/A,,Clear,20,2012-11-09 01:55:00
8:15 PM,44.6,35.6,71,29.94,10.0,NNE,11.5,-,N/A,,Clear,20,2012-11-09 02:15:00
8:35 PM,44.6,35.6,71,29.94,10.0,North,12.7,-,N/A,,Clear,10,2012-11-09 02:35:00
8:55 PM,42.8,37.4,81,29.94,10.0,NNE,13.8,-,N/A,,Clear,20,2012-11-09 02:55:00
9:15 PM,41.0,35.6,81,29.95,10.0,North,10.4,-,N/A,,Clear,10,2012-11-09 03:15:00
9:35 PM,39.2,35.6,87,29.95,10.0,NNE,10.4,-,N/A,,Clear,30,2012-11-09 03:35:00
9:55 PM,39.2,35.6,87,29.95,10.0,NNE,10.4,-,N/A,,Clear,30,2012-11-09 03:55:00
10:15 PM,39.2,35.6,87,29.95,10.0,NNE,8.1,-,N/A,,Clear,30,2012-11-09 04:15:00
10:35 PM,37.4,33.8,87,29.94,10.0,NNE,8.1,-,N/A,,Clear,30,2012-11-09 04:35:00
10:55 PM,37.4,33.8,87,29.95,10.0,North,5.8,-,N/A,,Clear,10,2012-11-09 04:55:00
11:15 PM,37.4,33.8,87,29.94,9.0,NNE,5.8,-,N/A,,Clear,20,2012-11-09 05:15:00
11:35 PM,37.4,33.8,87,29.95,8.0,NNW,4.6,-,N/A,,Scattered Clouds,340,2012-11-09 05:35:00
11:55 PM,37.4,35.6,93,29.96,7.0,North,4.6,-,N/A,,Overcast,10,2012-11-09 05:55:00